Chicago, IL

11:26 AM CST on January 20, 2017 (GMT -0600)
Chicago-Midway

Weather History for KMDW - June, 2013

Change the Weather History Date:

Monday, June 24, 2013

  Actual Average Record
Temperature  
Mean Temperature 77 °F 74 °F  
Max Temperature 86 °F 83 °F 99 °F (1937)
Min Temperature 68 °F 65 °F 48 °F (1936)
Degree Days  
Heating Degree Days 0 0  
Month to date heating degree days 36 29  
Since 1 June heating degree days 36 29  
Since 1 July heating degree days 5828 5988  
Cooling Degree Days 12 9  
Month to date cooling degree days 124 148  
Year to date cooling degree days 230 222  
Since 1 June cooling degree days 124 148  
Growing Degree Days 26 (Base 50)    
Moisture  
Dew Point 66 °F    
Average Humidity 74    
Maximum Humidity 88    
Minimum Humidity 47    
Precipitation  
Precipitation 0.14 in 0.13 in 2.31 in (1950)
Month to date precipitation 2.34 3.36  
Year to date precipitation 19.93 17.85  
Sea Level Pressure  
Sea Level Pressure 29.97 in    
Wind  
Wind Speed 11 mph (SW)    
Max Wind Speed 47 mph    
Max Gust Speed 67 mph    
Visibility 8 miles    
Events Rain , Thunderstorm    
T = Trace of Precipitation, MM = Missing Value Source: NWS Daily Summary

Daily Weather History Graph

Daily Weather History Graph

Search for Another Location

Airport or City:

Trip Planner

Search our weather history database for the weather conditions in past years. The results will help you decide how hot, cold, wet, or windy it might be!

Date:

Astronomy

Jun. 24, 2013 Rise Set
Actual Time 5:17 AM CDT 8:29 PM CDT
Civil Twilight 4:42 AM CDT 9:04 PM CDT
Nautical Twilight 3:58 AM CDT 9:48 PM CDT
Astronomical Twilight 3:05 AM CDT 10:41 PM CDT
Moon 9:29 PM CDT (6/24) 6:46 AM CDT (6/24)
Length of Visible Light 16h 21m
Length of Day
15h 12m
Full, 98% of the Moon is Illuminated
Jun 24
Full
Jun 29
Last Quarter
Jul 8
New
Jul 15
First Quarter
Jul 22
Full

Hourly Weather History & Observations

Time (CDT) Temp. Heat Index Dew Point Humidity Pressure Visibility Wind Dir Wind Speed Gust Speed Precip Events Conditions
12:51 AM 75.0 °F - 66.9 °F 76% 29.97 in 10.0 mi South 10.4 mph - N/A   Overcast
1:51 AM 73.9 °F - 66.9 °F 79% 29.96 in 10.0 mi South 9.2 mph - N/A   Mostly Cloudy
2:51 AM 73.0 °F - 66.9 °F 81% 29.96 in 10.0 mi South 9.2 mph - N/A   Overcast
3:51 AM 72.0 °F - 66.9 °F 84% 29.96 in 8.0 mi South 10.4 mph - N/A   Overcast
4:25 AM 71.6 °F - 66.2 °F 83% 30.01 in 7.0 mi SW 10.4 mph - N/A   Overcast
4:51 AM 72.0 °F - 66.9 °F 84% 29.97 in 5.0 mi SSW 9.2 mph - N/A   Haze
5:30 AM 71.6 °F - 68.0 °F 88% 30.02 in 3.0 mi SSW 11.5 mph - N/A   Overcast
5:51 AM 72.0 °F - 68.0 °F 87% 30.00 in 5.0 mi SW 10.4 mph - N/A   Overcast
6:51 AM 73.0 °F - 66.0 °F 79% 30.01 in 10.0 mi SW 11.5 mph - N/A   Overcast
7:51 AM 73.0 °F - 64.9 °F 76% 30.02 in 10.0 mi SW 12.7 mph 21.9 mph N/A   Overcast
8:51 AM 73.0 °F - 63.0 °F 71% 30.03 in 10.0 mi WSW 10.4 mph - N/A   Overcast
9:51 AM 73.0 °F - 64.0 °F 73% 30.04 in 10.0 mi WSW 10.4 mph - 0.00 in Rain Light Rain
10:51 AM 73.0 °F - 63.0 °F 71% 30.03 in 10.0 mi SW 12.7 mph - 0.00 in Rain Light Rain
11:51 AM 75.9 °F - 63.0 °F 64% 29.97 in 10.0 mi South 9.2 mph - 0.00 in   Overcast
12:51 PM 82.9 °F 83.3 °F 61.0 °F 47% 29.92 in 10.0 mi SSW 15.0 mph 24.2 mph N/A   Mostly Cloudy
1:51 PM 84.0 °F 84.9 °F 63.0 °F 49% 29.95 in 10.0 mi SSW 11.5 mph - N/A   Mostly Cloudy
2:51 PM 84.0 °F 86.5 °F 66.9 °F 56% 29.94 in 10.0 mi SW 12.7 mph - N/A   Mostly Cloudy
3:51 PM 84.0 °F 87.8 °F 69.1 °F 61% 29.93 in 10.0 mi SSW 16.1 mph 19.6 mph N/A   Mostly Cloudy
4:51 PM 84.0 °F 87.8 °F 69.1 °F 61% 29.94 in 10.0 mi SSW 16.1 mph - N/A   Mostly Cloudy
5:51 PM 84.9 °F 89.4 °F 70.0 °F 61% 29.92 in 10.0 mi WSW 15.0 mph 21.9 mph N/A   Mostly Cloudy
6:00 PM 84.2 °F 88.4 °F 69.8 °F 62% 30.00 in 10.0 mi SW 41.4 mph 66.7 mph N/A Thunderstorm Unknown
6:04 PM 75.2 °F - 62.6 °F 65% 30.02 in 1.0 mi West 43.7 mph 66.7 mph N/A Thunderstorm Unknown
6:09 PM 71.6 °F - 64.4 °F 78% 30.02 in 1.0 mi WSW 27.6 mph 66.7 mph 0.06 in Rain , Thunderstorm Thunderstorms and Rain
6:14 PM 69.8 °F - 64.4 °F 83% 29.99 in 2.0 mi WSW 17.3 mph 43.7 mph 0.10 in Rain , Thunderstorm Heavy Thunderstorms and Rain
6:18 PM 69.8 °F - 64.4 °F 83% 29.97 in 6.0 mi SSW 13.8 mph 34.5 mph 0.10 in Rain , Thunderstorm Light Thunderstorms and Rain
6:42 PM 69.8 °F - 64.4 °F 83% 29.95 in 10.0 mi SW 12.7 mph - 0.13 in Rain Light Rain
6:51 PM 69.1 °F - 64.0 °F 84% 29.91 in 10.0 mi SW 12.7 mph - 0.13 in Rain Light Rain
7:51 PM 69.1 °F - 64.0 °F 84% 29.86 in 10.0 mi SSW 9.2 mph 18.4 mph 0.01 in   Overcast
8:51 PM 69.1 °F - 64.0 °F 84% 29.89 in 10.0 mi SSW 8.1 mph - N/A   Overcast
9:51 PM 69.1 °F - 64.0 °F 84% 29.94 in 10.0 mi SSW 9.2 mph - N/A   Overcast
10:51 PM 69.1 °F - 64.0 °F 84% 29.94 in 10.0 mi SW 6.9 mph - N/A   Overcast
11:51 PM 70.0 °F - 64.0 °F 81% 29.94 in 10.0 mi South 9.2 mph - N/A   Overcast